Location: Finkenbach
(49.5340°N, 8.9188°E)
Time: 04:43:48
(UTC+00:00)

Cosmos 921 Rocket - Pass Details

Date: 17 June 2025
Orbit: 564 x 622 km, 75.8° (Epoch: 12 July)

Event Time Altitude Azimuth Distance (km) Brightness Sun altitude
Rises 20:45:38 0° 216° (SW) 2,801 6.2 -8.9°
Reaches altitude 10° 20:47:54 10° 222° (SW) 1,915 5.5 -9.1°
Maximum altitude 20:52:00 45° 296° (WNW) 818 4.2 -9.5°
Drops below altitude 10° 20:56:13 10° 10° (N) 1,965 6.3 -9.9°
Sets 20:58:34 0° 17° (NNE) 2,883 7.1 -10.1°
